Location: Demre
(36.2444°N, 29.9850°E)
Time: 04:46:54
(UTC+00:00)

NOAA 6 - Pass Details

Date: 11 March 2026
Orbit: 766 x 781 km, 98.6° (Epoch: 21 April)

Event Time Altitude Azimuth Distance (km) Brightness Sun altitude
Rises 17:08:37 0° 174° (S) 3,251 7.1 -13.9°
Reaches altitude 10° 17:10:57 10° 177° (S) 2,326 6.4 -14.3°
Maximum altitude 17:16:02 64° 258° (WSW) 863 4.5 -15.4°
Drops below altitude 10° 17:21:10 10° 340° (NNW) 2,337 6.9 -16.4°
Sets 17:23:30 0° 344° (NNW) 3,267 7.6 -16.9°
